Regional Weather Roundup
Issued by NWS Albany, NY

Home | Current Version | Previous Version | Text Only | Print | Product List | Glossary On
Versions: 1 2 3 4 5 6 7 8 9 10 11 12 13 14 15 16 17 18 19 20 21 22 23 24 25 26 27
000
ASUS41 KALY 170310
RWRALY

NEW YORK STATE HOURLY WEATHER ROUNDUP
NATIONAL WEATHER SERVICE ALBANY NY
1000 PM EST SAT DEC 16 2017

NOTE: "FAIR" INDICATES FEW OR NO CLOUDS BELOW 12,000 FEET WITH NO
SIGNIFICANT WEATHER AND/OR NO OBSTRUCTIONS TO VISIBILITY.

NYZ032-033-038>043-046>054-057>066-NYZ062>081-082-084-170400-
EAST


CITY           SKY/WX    TMP DP  RH WIND       PRES   REMARKS
ALBANY         PTCLDY    17  10  74 CALM      30.20R
GLENS FALLS    CLEAR      6   2  83 E3        30.18R
POUGHKEEPSIE   CLOUDY    28  17  63 NE5       30.19R WCI  23
NEWBURGH       CLOUDY    28  21  74 NW6       30.17R WCI  22
MONTGOMERY     CLOUDY    30  19  63 NW5       30.17R WCI  25
WHITE PLAINS   CLOUDY    32  21  64 NW12      30.15R WCI  23
ISLIP          CLOUDY    35  24  64 NW12      30.16R WCI  27
NEW YORK CITY  CLOUDY    37  24  59 NW9       30.18R WCI  30
CENTRAL PARK   CLOUDY    36  23  59 VRB5      30.20R WCI  32
$$

NYZ005>009-017-018-044>046-055-056-170400-
CENTRAL


CITY           SKY/WX    TMP DP  RH WIND       PRES   REMARKS
FULTON         CLEAR      9   5  84 CALM      30.19R
SYRACUSE       CLOUDY    16  15  96 W7        30.18S WCI   6
ROME           CLOUDY     6   4  91 CALM      30.20R
ELMIRA         CLOUDY    25  18  74 NE5       30.17R WCI  19
BINGHAMTON     CLOUDY    20  16  84 NW3       30.11R
MONTICELLO     CLOUDY    22  18  85 CALM      30.13R
$$

NYZ026>034-041>043-087-170400-
NORTH


CITY           SKY/WX    TMP DP  RH WIND       PRES   REMARKS
WATERTOWN      CLOUDY     7   3  84 E7        30.22R WCI  -5
FORT DRUM      NOT AVBL
MASSENA        CLOUDY     8   4  83 NW3       30.24R
SARANAC LAKE   CLEAR     -7  -9  91 CALM      30.07R
PLATTSBURGH    CLEAR     10   3  73 CALM      30.20R
$$

NYZ001>004-010>016-019>021-085-170400-
WEST


CITY           SKY/WX    TMP DP  RH WIND       PRES   REMARKS
NIAGARA FALLS  CLOUDY    18   9  68 CALM      30.20R
BUFFALO        CLOUDY    22  17  81 NE3       30.19R
DUNKIRK        MIX PCPN  23  19  85 NE8       30.17S WCI  14
JAMESTOWN      CLOUDY    24  23  96 CALM      30.09S
WELLSVILLE     CLOUDY    24  20  84 N5        30.08F WCI  18
ROCHESTER      CLOUDY    17  11  77 NW3       30.21R
PENN YAN       CLOUDY    23  13  65 NW5       30.17R WCI  17
$$

             KEY
       WCI = WIND CHILL INDEX
       VSB = VISIBILITY
       HX  = HEAT INDEX
$$




USA.gov is the U.S. government's official web portal to all federal, state and local government web resources and services.